SCP
0 0 0 0 0 0 0 0 0 0 0 0 0 0 0 0 0 0 0 0 0 0 0 0 0 0 0 0 0 0 0 0 0 0 0 0 0 0 0 0 0 0 0
0 0 0 0 0 0 0 0 0 0 0 0 0 0 0 0 0 0 0 0 0 0 0 0 0 0 0 0 0 0 0 0 0 0 0 0 0 0 0 0 0 0 0
0 0 0 0 0 0 0 0 0 0 0 0 0 0 0 0 0 0 0 0 0 0 0 0 0 0 0 0 0 0 0 0 0 0 0 0 0 0 0 0 0 0 0
0 0 0 0 0 0 0 0 0 0 0 0 0 0 0 0 0 0 0 0 0 0 0 0 0 0 0 0 0 0 0 0 0 0 0 0 0 0 0 0 0 0 0
0 0 0 0 0 0 0 0 0 0 0 0 0 0 0 0 0 0 0 0 0 0 0 0 0 0 0 0 0 0 0 0 0 0 0 0 0 0 0 0 0 0 0
0 0 0 0 0 0 0 0 0 0 0 0 0 0 0 0 0 0 0 0 0 0 0 0 0 0 0 0 0 0 0 0 0 0 0 0 0 0 0 0 0 0 0
0 0 0 0 0 0 0 0 0 0 0 0 0 0 0 0 0 0 0 0 0 0 0 0 0 0 0 0 0 0 0 0 0 0 0 0 0 0 0 0 0 0 0
0 0 0 0 0 0 0 0 0 0 0 0 0 0 0 0 0 0 0 0 0 0 0 0 0 0 0 0 0 0 0 0 0 0 0 0 0 0 0 0 0 0 0
0 0 0 0 0 0 0 0 0 0 0 0 0 0 0 0 0 0 0 0 0 0 0 0 0 0 0 0 0 0 0 0 0 0 0 0 0 0 0 0 0 0 0
0 0 0 0 0 0 0 0 0 0 0 0 0 0 0 0 0 0 0 0 0 0 0 0 0 0 0 0 0 0 0 0 0 0 0 0 0 0 0 0 0 0 0
0 0 0 0 0 0 0 0 0 0 0 0 0 0 0 0 0 0 0 0 0 0 0 0 0 0 0 0 0 0 0 0 0 0 0 0 0 0 0 0 0 0 0
0 0 0 0 0 0 0 0 0 0 0 0 0 0 0 0 0 0 0 0 0 0 0 0 0 0 0 0 0 0 0 0 0 0 0 0 0 0 0 0 0 0 0
0 0 0 0 0 0 0 0 0 0 0 0 0 0 0 0 0 0 0 0 0 0 0 0 0 0 0 0 0 0 0 0 0 0 0 0 0 0 0 0 0 0 0
0 0 0 0 0 0 0 0 0 0 0 0 0 0 0 0 0 0 0 0 0 0 0 0 0 0 0 0 0 0 0 0 0 0 0 0 0 0 0 0 0 0 0
0 0 0 0 0 0 0 0 0 0 0 0 0 0 0 0 0 0 0 0 0 0 0 0 0 0 0 0 0 0 0 0 0 0 0 0 0 0 0 0 0 0 0
0 0 0 0 0 0 0 0 0 0 0 0 0 0 0 0 0 0 0 0 0 0 0 0 0 0 0 0 0 0 0 0 0 0 0 0 0 0 0 0 0 0 0
0 0 0 0 0 0 0 0 0 0 0 0 0 0 0 0 0 0 0 0 0 0 0 0 0 0 0 0 0 0 0 0 0 0 0 0 0 0 0 0 0 0 0
0 0 0 0 0 0 0 0 0 0 0 0 0 0 0 0 0 0 0 0 0 0 0 0 0 0 0 0 0 0 0 0 0 0 0 0 0 0 0 0 0 0 0
0 0 0 0 0 0 0 0 0 0 0 0 0 0 0 0 0 0 0 0 0 0 0 0 0 0 0 0 0 0 0 0 0 0 0 0 0 0 0 0 0 0 0
0 0 0 0 0 0 0 0 0 0 0 0 0 0 0 0 0 0 0 0 0 0 0 0 0 0 0 0 0 0 0 0 0 0 0 0 0 0 0 0 0 0 0
0 0 0 0 0 0 0 0 0 0 0 0 0 0 0 0 0 0 0 0 0 0 0 0 0 0 0 0 0 0 0 0 0 0 0 0 0 0 0 0 0 0 0
0 0 0 0 0 0 0 0 0 0 0 0 0 0 0 0 0 0 0 0 0 0 0 0 0 0 0 0 0 0 0 0 0 0 0 0 0 0 0 0 0 0 0
0 0 0 0 0 0 0 0 0 0 0 0 0 0 0 0 0 0 0 0 0 0 0 0 0 0 0 0 0 0 0 0 0 0 0 0 0 0 0 0 0 0 0
0 0 0 0 0 0 0 0 0 0 0 0 0 0 0 0 0 0 0 0 0 0 0 0 0 0 0 0 0 0 0 0 0 0 0 0 0 0 0 0 0 0 0
0 0 0 0 0 0 0 0 0 0 0 0 0 0 0 0 0 0 0 0 0 0 0 0 0 0 0 0 0 0 0 0 0 0 0 0 0 0 0 0 0 0 0
0 0 0 0 0 0 0 0 0 0 0 0 0 0 0 0 0 0 0 0 0 0 0 0 0 0 0 0 0 0 0 0 0 0 0 0 0 0 0 0 0 0 0
Wind_Speed
1 2 2 2 2 2 2 2 3 3 3 3 3 3 4 4 4 4 4 4 5 5 5 5 6 5 4 4 4 5 5 6 8 6 5 5 7 7 6 6 6 7 6
1 1 2 2 1 1 2 2 3 3 3 3 3 4 4 4 4 5 5 5 5 6 6 6 6 5 6 5 5 6 6 6 7 8 6 5 7 7 7 7 6 6 7
1 1 1 1 2 2 3 3 3 3 3 3 3 4 4 4 4 5 5 5 6 6 6 7 6 6 6 5 6 6 5 5 6 7 7 5 5 5 6 6 7 6 7
1 1 2 2 2 3 3 3 3 3 3 3 3 4 4 4 5 5 5 5 6 6 6 7 7 7 8 7 6 7 6 6 6 6 7 6 5 5 4 5 6 6 6
2 2 2 3 3 3 3 3 3 3 3 3 3 3 4 4 4 5 5 5 6 6 6 7 7 8 9 7 6 6 6 6 6 6 7 6 6 4 4 4 6 6 6
2 3 3 3 3 3 3 3 3 3 3 3 3 4 4 4 5 6 5 6 6 7 7 7 7 7 8 10 11 10 9 8 8 7 7 7 7 6 5 5 5 5 6
2 3 3 3 3 3 3 3 3 4 3 4 4 4 5 6 6 7 7 6 6 6 7 6 5 5 6 7 8 10 10 11 11 8 9 9 8 6 5 6 6 6 7
3 3 3 3 3 3 3 4 4 3 4 4 4 5 5 6 6 7 7 6 6 6 6 6 6 6 5 6 6 7 7 8 8 8 9 8 7 5 5 6 6 7 7
3 4 4 3 4 4 4 5 4 4 4 4 4 5 5 5 6 6 6 5 5 6 5 5 6 6 7 7 6 7 8 7 7 9 10 9 9 8 6 4 4 5 6
5 5 4 4 4 5 5 5 4 4 4 4 4 4 5 6 6 6 5 4 5 5 5 5 6 8 8 8 7 7 8 7 6 6 7 8 7 7 7 6 5 5 5
4 4 4 4 4 4 4 4 3 3 3 4 4 4 5 5 6 6 6 4 4 5 4 4 4 8 9 9 8 7 8 7 6 6 5 5 4 4 4 5 5 5 6
4 4 4 4 4 3 3 3 3 3 3 3 4 4 4 4 5 6 7 7 5 5 5 4 4 6 7 8 7 7 8 6 4 4 4 4 4 4 4 4 5 6 6
4 4 4 4 3 3 3 3 3 3 3 3 3 4 4 3 4 6 7 8 8 5 5 6 6 7 7 6 6 7 5 4 4 5 5 5 4 4 3 3 4 4 6
4 4 4 3 4 3 2 2 3 3 3 3 4 4 4 4 3 3 3 4 5 5 5 5 6 7 5 5 4 4 3 3 4 4 4 4 3 3 3 3 3 3 4
4 4 4 3 3 3 3 3 4 4 4 4 4 4 4 5 5 6 4 4 4 4 4 3 3 3 3 3 3 3 3 3 3 4 4 4 3 3 3 3 3 3 4
4 4 3 3 3 3 3 3 5 5 6 8 8 7 6 7 9 8 8 8 7 6 4 4 4 4 4 4 4 3 3 3 3 3 3 3 3 3 3 3 3 4 4
5 4 3 3 3 3 3 3 4 4 6 7 8 9 8 9 9 9 8 8 7 5 4 4 4 4 4 4 4 4 4 4 3 3 4 3 3 3 3 3 3 3 4
5 5 4 4 3 4 4 4 4 4 5 5 6 8 9 9 8 8 8 6 4 3 4 4 5 4 4 4 4 4 4 3 3 3 3 3 3 3 3 3 3 3 4
4 4 4 3 3 4 4 4 4 5 5 5 5 5 6 7 7 7 5 3 4 4 4 4 5 4 4 4 4 4 4 4 4 3 3 3 3 3 4 4 4 4 4
4 5 4 3 3 3 3 4 4 4 5 5 5 5 4 4 4 4 3 4 4 5 5 5 5 5 4 4 4 4 4 4 4 4 3 3 3 3 4 4 4 3 3
3 3 4 3 4 4 4 4 4 5 5 5 5 6 7 5 5 5 4 4 5 5 5 5 5 5 4 4 4 4 5 4 4 4 3 3 3 3 3 3 3 3 3
3 3 3 3 4 4 4 4 5 5 6 6 6 5 7 5 5 5 5 5 5 5 5 5 5 4 4 4 4 4 4 4 4 4 4 3 3 4 3 3 3 3 3
3 3 4 4 4 5 4 4 5 5 5 6 6 5 5 5 5 5 5 5 5 5 4 4 5 5 4 4 5 5 5 5 4 4 4 4 4 3 3 3 4 3 3
3 4 4 4 4 4 4 5 5 5 6 6 6 6 6 5 5 6 6 5 5 5 4 5 5 7 7 6 5 5 5 5 5 5 6 5 4 4 4 4 4 4 4
3 4 4 4 4 4 5 5 5 5 6 6 6 6 6 5 5 5 5 5 6 6 6 6 5 6 7 8 7 6 7 8 7 5 5 5 5 5 5 5 4 4 4
4 4 4 4 4 5 5 5 5 6 6 6 6 6 6 5 5 5 5 5 5 5 6 6 7 7 8 7 8 9 8 8 8 8 6 5 5 5 5 5 5 5 5
Wind_Direction
276 252 239 247 246 237 239 250 257 262 256 254 247 244 242 238 232 230 235 232 234 241 241 241 243 242 242 241 242 244 245 248 262 277 281 284 280 281 282 283 284 280 277
289 272 257 246 246 251 255 259 260 259 258 256 249 245 244 240 236 234 238 239 239 242 242 242 245 244 244 244 243 244 247 248 257 272 279 279 274 277 282 284 284 281 281
308 279 273 271 264 261 262 261 257 257 260 261 253 249 249 245 241 240 242 242 243 244 243 243 245 244 244 244 246 248 250 253 256 265 274 275 275 277 284 282 282 280 281
332 299 279 281 277 274 272 270 263 257 257 258 258 259 258 255 247 246 246 246 249 250 249 248 247 245 247 247 248 249 251 253 255 260 267 272 273 276 276 281 285 282 283
320 310 291 281 280 280 282 282 277 266 260 258 258 262 262 257 252 252 251 251 253 255 255 254 251 253 255 254 254 255 253 252 256 259 264 269 268 270 267 274 279 290 284
301 299 302 287 276 273 278 280 278 276 270 259 253 256 260 260 263 257 258 255 253 253 257 258 256 252 255 255 257 259 255 253 254 256 261 263 268 268 272 270 275 283 285
297 294 294 286 273 269 273 271 271 274 275 270 262 260 262 267 268 260 257 257 256 255 257 261 262 261 260 263 261 258 255 253 253 255 261 264 270 267 268 267 265 270 275
299 299 297 291 277 273 267 263 267 270 265 264 265 262 264 271 271 267 263 253 257 258 259 261 265 269 266 272 271 266 264 260 258 255 261 267 270 268 258 265 273 278 283
290 290 290 290 285 273 264 265 268 267 266 266 267 266 267 275 275 271 267 258 259 264 265 263 264 269 275 269 265 268 273 273 269 263 265 269 270 265 259 258 258 265 277
284 288 289 283 277 267 262 265 271 264 266 272 271 269 270 276 279 274 266 257 262 266 266 266 264 271 278 265 259 262 268 274 278 277 267 264 260 256 244 240 245 251 269
296 295 290 285 281 274 266 264 266 267 272 273 276 278 276 277 281 280 269 259 264 269 268 269 271 277 275 270 262 261 270 280 273 268 266 262 257 251 245 243 242 243 253
297 290 290 291 289 287 272 267 262 257 263 272 279 283 281 280 279 282 276 269 278 272 274 278 283 286 279 276 272 282 284 280 272 264 259 258 255 255 256 253 250 248 254
294 288 293 299 295 289 269 259 257 252 256 266 271 278 288 291 286 285 281 279 278 274 281 289 292 291 285 280 285 293 289 278 272 268 265 266 266 264 262 263 261 256 259
280 286 292 293 293 291 272 256 254 251 254 258 264 273 283 287 288 293 286 283 279 274 280 287 286 286 283 288 294 284 276 278 277 275 279 282 282 266 254 256 262 265 270
277 283 287 283 281 280 269 258 259 257 258 263 269 272 278 281 288 293 292 285 282 282 287 282 280 282 278 278 280 279 278 277 274 275 277 279 277 275 272 266 260 260 261
268 274 277 277 270 267 271 277 264 266 274 273 277 278 280 286 297 295 286 285 286 282 278 269 265 264 267 272 274 276 271 270 274 275 272 272 273 274 275 274 268 260 264
260 268 270 263 258 259 261 267 282 286 277 276 280 282 284 292 296 295 291 282 282 273 261 265 263 261 261 261 262 264 267 269 267 264 266 268 270 270 268 269 270 270 271
260 262 260 253 251 253 254 257 262 272 286 289 287 286 293 296 297 299 294 286 279 265 262 266 266 263 260 258 259 261 267 269 261 261 263 265 265 264 265 268 268 268 273
257 259 253 251 251 252 257 260 262 264 269 279 289 291 295 296 294 296 291 271 266 267 266 269 268 263 258 256 257 259 261 262 262 262 261 262 261 261 264 267 267 267 264
255 258 254 252 252 251 252 254 257 261 267 271 275 284 296 289 282 286 270 262 261 264 266 267 266 263 263 261 258 256 257 258 259 255 258 258 256 253 256 261 265 266 265
259 253 244 248 247 247 249 251 253 257 261 266 271 276 280 274 270 269 266 263 262 265 266 267 265 263 260 260 260 256 253 253 251 250 250 251 254 258 259 258 259 262 270
256 250 245 245 249 248 250 252 253 255 260 266 275 279 277 270 268 268 267 267 267 266 268 268 265 259 254 253 253 254 256 256 251 245 246 246 245 247 251 256 258 259 258
247 246 248 247 249 251 253 253 255 257 261 266 272 274 271 264 263 265 268 271 271 269 269 266 265 262 257 251 248 246 247 248 248 247 244 242 243 244 244 245 248 254 261
244 240 244 249 252 254 257 260 260 259 261 264 266 267 266 263 263 265 269 273 272 270 266 262 261 260 259 259 254 249 249 251 246 238 238 243 244 242 241 242 245 245 251
244 241 242 245 247 252 257 261 262 262 261 262 265 267 267 265 265 267 269 270 272 271 270 267 264 260 257 258 258 256 254 252 245 235 232 232 237 242 241 241 240 241 242
242 242 244 246 247 249 253 257 261 264 264 265 266 268 268 268 270 272 271 270 271 271 271 267 266 261 260 259 261 260 255 249 239 229 224 227 230 235 237 238 239 239 239